Theta_e
295 294 293 294 294 294 293 294 295 294 294 294 294 294 294 295 295 295 293 294 295 296 297 299 299 299 301 301 302 302 300 299 296 294 297 295 298 297 297 298 299 300 302 304 305 305 304 304 304 305 304 305 305 308
294 294 294 294 293 293 293 294 294 294 293 293 294 294 294 294 294 294 294 293 292 292 297 297 297 297 298 299 300 298 300 301 300 296 296 296 298 295 298 299 299 298 299 301 301 302 304 304 304 303 304 304 304 306
293 294 293 293 293 293 293 293 293 293 293 293 293 292 293 294 294 294 295 294 296 295 295 295 296 297 297 297 298 297 298 300 298 298 297 295 297 295 295 297 298 298 299 299 300 299 301 303 303 304 305 307 307 308
293 293 293 293 292 293 292 293 293 293 293 293 293 293 293 293 293 294 295 295 295 295 291 294 297 297 296 297 297 297 298 298 298 298 295 295 296 296 295 296 296 296 298 298 299 300 302 302 303 302 306 305 306 306
293 293 293 292 292 292 292 292 293 292 292 292 292 293 292 292 293 293 294 294 295 294 294 292 295 295 295 296 297 296 296 296 296 296 294 295 295 295 295 295 296 297 297 297 298 300 300 301 303 304 305 305 306 304
293 293 293 292 291 292 292 292 292 292 292 292 292 292 293 293 294 293 290 292 293 294 291 290 296 297 297 297 297 295 294 294 294 295 295 296 297 294 293 294 296 296 296 297 297 298 300 303 304 303 304 306 304 301
293 293 292 292 292 292 291 291 292 292 291 291 292 292 292 293 293 292 290 294 295 294 293 292 292 296 296 297 296 296 295 294 293 294 294 294 295 295 291 297 296 296 296 297 298 299 300 300 301 304 302 301 301 299
294 293 293 292 291 291 291 291 291 291 292 291 291 292 292 292 293 293 292 293 295 295 294 291 292 293 298 294 295 296 293 295 294 293 294 294 294 295 296 296 297 298 298 298 298 299 300 301 302 301 300 299 299 296
294 294 293 292 291 291 291 291 291 291 291 291 292 292 292 292 292 292 293 293 293 292 294 292 295 294 296 296 297 297 296 293 295 293 294 295 294 297 297 296 296 297 298 300 301 301 302 302 301 300 299 298 296 294
294 293 292 291 291 291 291 291 292 292 292 292 291 291 293 292 292 293 293 293 293 292 294 294 294 294 296 297 299 298 293 295 292 295 295 294 296 296 297 297 298 298 298 300 302 301 301 301 301 300 299 297 293 292
292 291 291 291 292 292 291 292 292 292 291 292 292 293 295 294 294 294 295 295 293 294 293 293 293 294 297 297 298 298 295 293 295 296 296 298 298 297 297 297 297 297 297 297 298 300 302 301 300 299 298 293 292 291
291 292 292 292 292 292 294 295 295 295 293 293 294 295 295 295 296 297 296 295 296 296 296 295 293 294 298 299 299 297 298 298 299 300 299 299 298 301 301 300 300 299 298 298 297 298 300 299 298 297 295 293 292 291
290 292 292 294 295 295 295 295 295 296 293 293 294 295 296 297 299 297 296 298 297 297 299 297 294 297 299 300 298 301 296 298 300 302 300 298 300 300 299 299 298 297 296 297 300 299 298 296 296 295 293 292 291 288
290 292 295 295 295 295 295 296 296 294 295 297 298 298 297 298 297 299 299 297 296 298 299 298 297 298 297 300 298 301 299 300 299 296 299 299 297 295 296 294 294 295 294 293 294 297 296 295 293 293 292 289 287 284
293 294 295 295 295 294 296 295 296 295 297 298 299 300 298 298 299 299 298 299 299 300 300 299 298 299 299 299 298 300 301 300 299 300 301 298 295 293 294 294 294 294 294 294 294 294 293 293 291 288 287 286 284 282
295 295 295 295 294 296 296 295 295 296 296 298 299 299 298 300 301 298 298 300 299 299 300 298 299 299 300 300 301 300 302 301 301 299 296 295 292 292 293 293 292 292 292 292 292 292 290 289 287 285 283 282 281 281
295 295 296 294 294 295 295 294 297 298 297 297 299 296 297 297 300 299 296 295 297 299 299 299 298 301 297 300 302 300 299 299 297 294 293 292 291 290 291 290 290 290 290 290 289 288 287 286 284 283 281 279 280 280
294 295 294 294 295 295 297 296 298 298 298 297 298 298 296 295 296 297 297 295 296 297 298 301 299 302 299 302 299 298 296 295 294 291 289 288 289 289 290 291 290 290 288 287 287 286 286 285 283 282 280 280 279 279
296 294 293 295 295 296 296 297 298 298 295 296 296 295 294 295 294 293 295 295 296 298 294 296 298 300 298 296 295 291 291 292 292 291 290 288 288 289 288 288 289 288 287 286 286 286 286 285 284 282 281 280 279 278
294 293 293 294 295 296 298 297 297 297 298 295 294 296 294 294 294 294 295 295 296 296 296 297 295 294 293 292 291 291 291 291 290 289 290 283 288 288 288 288 286 286 286 286 286 287 287 285 284 283 281 281 279 279
295 295 293 293 294 296 296 296 297 296 295 297 295 296 295 295 296 296 296 294 293 295 293 291 291 289 289 290 289 290 289 288 290 290 290 287 288 288 288 287 288 288 287 286 286 288 287 286 285 283 283 283 281 281
296 295 295 295 297 296 296 295 297 295 297 295 296 297 296 296 296 294 294 294 293 292 291 290 290 291 288 289 288 289 290 289 288 289 289 289 287 287 287 289 289 288 288 289 288 288 288 287 286 285 285 285 284 283
293 294 296 296 295 295 294 295 296 296 296 296 296 298 296 296 293 293 292 292 290 288 289 288 289 291 288 289 290 289 290 290 289 289 289 289 289 289 290 290 290 289 288 288 288 288 287 286 286 285 286 285 284 284
293 293 292 293 295 296 293 293 297 296 296 296 298 296 296 294 293 294 294 291 288 288 288 288 289 289 290 289 288 287 287 290 290 290 289 289 288 289 289 289 289 289 289 288 288 287 285 285 285 285 285 284 284 283
292 291 292 292 293 293 294 294 294 296 292 294 294 294 293 293 293 293 293 289 288 287 289 288 289 290 289 288 287 287 287 287 289 287 289 289 289 288 288 287 287 287 287 287 287 285 285 284 284 284 284 284 284 283
290 291 292 294 294 293 294 293 292 294 294 292 292 293 292 292 291 290 292 288 289 288 288 286 287 286 286 285 285 286 285 287 288 287 287 287 287 288 287 287 286 285 286 286 286 286 284 284 283 284 284 283 283 283
290 292 293 292 292 293 293 292 294 294 292 291 292 291 292 291 289 288 285 284 285 285 285 285 286 286 285 284 284 285 285 285 286 286 286 285 285 285 285 285 285 284 285 284 285 285 285 284 283 283 283 283 282 283
289 290 289 290 292 292 293 293 291 291 293 291 292 292 290 288 286 281 281 282 283 283 283 283 283 283 283 283 283 283 284 285 285 285 284 284 283 283 283 284 284 283 283 283 283 283 284 285 284 283 283 283 283 282
291 290 289 291 287 291 292 292 292 287 285 287 290 288 282 279 278 279 279 280 281 282 283 282 283 282 282 281 281 281 281 282 286 286 287 285 281 282 283 283 284 284 283 283 282 282 282 283 283 283 283 283 283 282
288 287 287 289 285 285 287 283 285 283 282 280 279 279 278 275 276 277 278 279 280 282 283 282 283 283 283 281 279 279 279 279 280 280 278 278 279 281 282 282 282 283 284 284 283 282 281 280 281 281 281 282 282 282
285 287 288 289 288 288 286 281 280 281 281 281 281 281 278 275 276 276 276 277 279 280 281 281 280 280 279 279 280 279 278 278 278 278 279 280 281 281 281 281 281 282 283 283 284 283 282 282 281 281 281 281 282 282
283 283 287 287 287 285 281 282 282 282 280 279 279 276 276 277 278 275 275 276 277 278 279 279 277 277 277 277 277 278 278 277 277 277 277 278 279 279 280 280 280 281 281 282 282 283 284 283 283 283 283 282 282 282
282 283 284 283 283 285 283 282 285 286 284 285 281 277 278 279 277 273 273 274 275 277 276 276 276 276 276 277 277 278 277 277 275 275 275 275 276 277 278 278 279 279 279 280 280 281 282 282 281 281 280 278 277 276
Wind_Speed
13 15 15 13 12 11 10 10 10 10 10 11 12 11 10 11 11 13 8 19 10 3 4 4 3 4 3 2 2 4 4 1 1 2 3 4 4 5 5 4 3 4 3 2 2 6 13 8 12 6 3 4 7 10
14 14 14 13 11 10 8 8 7 7 6 6 6 8 11 9 8 9 4 8 16 4 3 9 15 12 12 6 4 2 2 1 2 2 2 3 1 1 4 2 2 3 4 2 4 5 6 5 11 15 8 7 4 11
14 15 14 13 12 10 9 7 5 5 5 5 6 7 9 11 11 10 1 3 4 3 4 1 5 8 7 4 2 4 2 4 1 3 1 2 1 2 3 4 4 3 3 4 4 3 5 3 6 4 14 9 5 5
12 14 14 12 11 11 10 9 8 6 4 5 6 6 7 7 8 9 7 4 6 2 0 4 9 4 9 8 7 7 3 5 1 3 2 2 2 3 3 4 3 4 3 5 12 9 6 5 5 5 8 7 6 4
14 14 14 12 11 12 11 11 11 9 7 5 5 5 5 4 5 6 8 10 7 2 2 4 16 18 13 11 14 13 9 4 2 2 2 4 2 2 3 1 5 3 7 4 7 6 10 10 5 3 5 8 6 7
16 14 14 12 11 11 11 11 11 10 9 8 7 6 6 6 5 1 3 5 11 6 1 3 4 5 11 9 9 6 5 3 4 4 3 3 3 2 3 3 4 11 15 14 15 17 13 5 10 2 8 10 5 8
17 15 14 13 12 12 11 11 11 11 10 10 9 8 8 9 9 3 3 2 3 9 1 3 3 3 10 7 1 1 4 3 3 2 3 3 2 2 2 11 13 14 20 17 13 7 3 3 3 5 8 3 12 16
17 16 15 14 13 12 11 11 11 11 11 10 9 9 8 8 7 9 19 9 3 3 2 2 4 2 2 1 1 2 2 1 1 3 2 4 2 4 6 9 10 14 16 16 14 7 5 5 3 5 5 7 10 10
16 15 14 13 13 13 13 12 12 13 13 10 7 5 6 4 4 6 7 10 12 3 2 2 2 2 3 1 1 0 3 1 3 3 3 4 3 6 7 11 13 17 14 5 5 8 7 8 8 10 10 11 10 11
13 13 12 11 12 13 15 15 15 14 14 12 8 6 3 8 9 16 6 2 3 3 3 4 2 3 4 2 2 2 2 3 2 5 3 3 8 16 15 14 11 11 10 8 9 13 6 9 11 12 13 11 10 11
11 11 11 12 13 15 17 18 19 20 18 7 4 4 3 23 8 3 3 4 4 3 4 4 10 8 3 3 3 3 3 2 2 4 6 3 4 11 17 20 18 19 18 16 12 11 15 15 14 12 11 11 13 16
9 9 11 13 17 19 17 17 17 15 10 11 7 7 9 2 3 4 5 3 5 5 4 4 5 8 3 2 3 3 3 2 4 2 1 3 3 7 4 3 5 10 11 17 17 17 12 16 15 16 15 14 18 18
8 9 12 10 8 11 15 17 17 17 15 8 4 4 3 4 6 5 7 4 4 4 4 3 1 4 2 2 2 2 2 4 2 4 3 1 8 10 10 9 7 8 9 8 11 10 17 15 21 20 14 21 23 18
9 10 9 8 10 13 12 12 15 21 5 3 4 5 4 4 5 5 4 5 5 4 4 4 3 3 3 3 3 2 5 1 2 1 3 1 4 5 8 6 6 9 10 10 8 15 17 15 12 19 21 24 23 19
10 10 10 10 10 12 9 7 23 18 5 3 3 4 6 4 1 2 4 1 1 4 4 4 2 2 2 2 3 2 2 3 4 0 1 1 3 4 5 6 6 5 5 5 6 10 11 14 14 15 20 23 24 25
6 5 12 10 9 6 10 20 11 3 2 3 3 3 2 1 1 3 3 3 2 3 2 2 3 3 4 3 3 5 2 2 1 1 1 3 5 7 5 5 3 3 3 4 5 10 14 14 14 17 20 23 25 28
4 4 6 7 3 8 10 3 6 5 3 2 2 1 2 3 3 2 2 2 2 3 3 3 4 7 1 1 3 2 2 1 1 0 1 4 5 5 4 3 3 2 4 6 9 11 14 19 22 20 12 15 22 23
2 4 6 10 7 1 2 5 2 2 2 0 1 1 1 1 3 2 2 2 2 1 1 1 1 2 1 1 2 2 2 2 2 2 2 2 4 5 3 1 2 5 6 9 12 14 16 16 12 10 18 20 21 20
5 6 3 15 5 2 1 2 2 2 3 2 1 1 0 1 2 3 3 1 1 1 2 2 3 2 2 2 2 1 1 1 2 3 1 1 2 3 3 5 6 7 9 9 11 9 11 13 15 17 18 18 14 16
5 5 4 15 11 2 2 2 3 2 2 2 1 1 1 1 2 2 2 2 2 2 3 2 2 1 1 1 1 1 2 1 2 3 1 1 1 1 2 4 4 9 10 12 12 14 12 13 14 17 18 16 17 17
3 3 4 10 5 7 2 1 2 2 1 0 1 1 2 1 1 1 1 2 3 1 2 1 2 2 2 2 3 3 1 2 2 2 1 1 3 7 7 8 7 7 6 6 3 7 11 8 13 17 19 18 18 19
2 5 3 5 2 2 2 3 2 2 1 1 1 2 2 2 2 1 2 2 1 1 1 2 2 3 2 2 1 5 4 2 1 1 5 6 2 1 1 3 5 2 5 6 9 7 11 15 17 17 16 17 18 20
2 1 1 2 1 1 4 1 2 3 2 2 1 2 2 2 2 1 1 2 1 0 2 2 3 4 5 4 3 9 7 3 2 3 5 7 10 9 9 9 9 7 3 9 10 9 14 13 14 15 13 17 18 17
2 2 2 2 2 2 1 2 3 2 2 2 2 2 3 2 2 1 2 2 2 1 1 2 1 2 4 4 3 3 9 5 7 6 7 6 2 5 9 9 10 8 8 9 9 12 14 14 12 11 14 14 13 13
2 2 0 3 2 1 2 2 2 2 3 2 2 1 2 2 2 3 3 2 3 2 1 1 1 3 4 3 2 5 12 11 3 4 11 9 8 8 8 9 7 5 5 7 9 10 10 11 11 10 12 13 11 13
1 1 1 3 2 1 2 2 4 4 2 2 3 0 1 2 1 3 2 2 3 2 2 2 2 4 4 3 3 3 8 12 8 7 9 10 10 7 2 1 1 2 2 1 6 8 9 9 10 9 10 12 11 12
1 1 1 1 2 3 3 2 2 1 2 4 2 3 2 3 4 1 2 3 2 4 10 11 9 6 4 6 9 5 5 7 7 7 7 9 9 9 9 5 4 5 3 2 3 2 7 11 12 11 10 11 13 13
2 2 3 3 2 1 3 3 2 2 1 3 2 4 4 2 2 2 2 5 10 11 12 10 10 11 12 10 5 3 3 2 7 10 12 12 10 9 8 5 3 2 2 2 0 3 3 2 11 11 12 12 12 12
1 1 2 4 2 3 2 2 2 2 2 2 3 1 1 2 2 2 4 3 3 3 7 8 8 10 12 11 10 6 6 7 2 4 5 4 2 8 8 7 5 2 1 2 1 1 2 3 3 5 7 9 10 11
2 2 3 3 3 3 1 1 1 1 1 1 2 2 2 1 1 1 5 4 5 3 7 12 8 9 10 10 10 11 11 12 13 9 3 2 1 4 6 6 7 6 2 3 4 0 3 3 2 3 3 4 6 11
3 2 3 4 3 1 3 2 1 1 1 0 1 1 2 2 2 1 3 6 5 7 10 10 10 10 12 11 8 7 5 7 7 5 4 3 4 4 4 3 4 5 4 2 4 8 4 2 4 4 4 6 6 8
2 3 3 3 0 3 2 2 3 3 3 2 2 2 2 2 3 2 1 1 4 3 5 12 12 9 9 10 10 10 8 7 4 3 2 2 2 2 4 3 3 3 3 3 3 2 2 7 6 9 11 10 9 8
5 6 7 3 3 5 4 3 4 3 3 4 3 4 3 1 3 2 2 3 8 11 13 14 11 9 9 8 8 6 6 5 6 8 9 8 6 3 3 3 3 4 5 8 10 6 2 2 3 8 12 16 18 17
Wind_Direction
232 226 230 221 226 237 251 252 246 253 254 250 246 241 224 210 205 212 226 217 204 230 257 223 261 274 235 189 148 131 92 234 51 103 138 212 185 203 203 223 255 215 193 176 300 235 265 1 358 314 265 300 336 334
222 222 213 219 225 240 239 235 236 239 242 235 223 205 194 196 183 182 243 217 225 253 254 284 281 290 302 29 120 105 70 79 125 119 222 216 251 112 140 239 121 278 173 245 251 223 222 251 234 267 289 283 304 302
224 219 214 217 225 227 222 214 216 215 209 197 183 176 188 202 200 205 328 260 245 280 306 272 251 269 264 314 43 141 201 134 136 139 87 239 197 154 157 233 220 282 287 246 351 301 275 266 280 9 336 238 220 71
220 211 215 219 225 219 219 214 202 194 182 184 186 184 184 194 212 232 256 277 261 290 204 286 3 338 320 279 239 246 252 306 128 124 155 244 182 169 217 221 203 188 357 287 283 295 293 293 283 318 310 331 99 175
216 215 215 221 223 218 218 210 204 203 199 194 190 191 194 197 218 245 271 280 282 291 295 294 307 292 268 259 237 229 220 220 233 246 174 212 208 87 245 253 237 168 230 219 255 281 269 271 306 245 267 275 191 154
215 214 216 221 220 215 215 210 214 216 217 222 222 226 224 219 221 272 338 283 255 265 66 305 286 272 252 248 263 206 212 212 195 187 214 233 228 120 214 235 211 243 245 245 257 263 263 276 294 272 267 259 247 142
215 214 217 219 220 214 219 223 225 227 233 233 233 229 230 227 213 179 196 344 275 189 166 295 278 249 229 215 215 233 209 207 156 225 218 213 267 216 210 257 260 267 277 271 262 268 273 1 273 193 222 67 114 127
214 214 215 218 219 220 224 225 231 232 232 236 247 244 245 240 235 249 239 264 145 155 235 244 261 339 116 81 332 202 136 116 254 209 254 198 208 193 244 243 248 250 249 253 249 222 191 169 186 174 137 135 126 125
205 209 211 218 224 226 228 231 238 231 241 242 230 243 283 236 210 215 216 225 234 257 238 214 224 262 18 23 252 242 151 213 214 204 210 163 211 224 226 228 235 239 245 294 341 281 255 171 160 149 156 152 142 144
195 200 209 219 225 229 238 241 242 240 239 233 247 193 208 210 164 149 125 160 205 223 224 242 248 229 146 148 247 198 166 215 216 226 153 196 245 240 231 238 252 253 260 200 217 251 173 172 174 176 174 168 155 150
194 208 220 229 238 247 250 250 249 245 246 207 187 206 165 146 138 176 168 190 179 235 210 220 209 229 192 181 211 213 200 231 247 235 170 234 252 234 228 231 239 250 255 263 254 193 195 181 171 168 166 153 152 155
211 221 240 246 258 259 254 252 246 226 186 187 170 141 147 228 187 194 174 203 191 220 202 189 211 189 179 117 185 215 218 193 253 93 193 257 329 12 15 249 261 270 268 253 250 250 168 166 173 171 166 156 156 157
237 242 261 257 236 252 272 261 244 212 155 156 206 153 182 170 209 206 183 207 202 213 199 149 126 129 112 201 195 215 240 228 133 197 204 241 4 15 16 8 353 359 346 320 257 183 150 149 154 159 156 153 150 148
254 261 255 245 272 284 278 249 214 175 160 200 182 189 203 182 240 209 201 197 224 162 166 137 105 142 179 168 207 223 228 7 251 223 228 30 16 349 358 350 1 357 1 12 47 124 132 137 140 150 153 148 142 143
260 244 244 266 277 292 274 240 175 169 201 216 198 219 211 241 360 298 269 286 184 160 139 98 86 150 198 155 207 204 284 248 206 233 76 343 4 7 6 358 352 2 10 42 81 113 121 131 133 127 136 138 141 142
244 251 262 261 282 288 150 142 157 184 243 228 228 287 339 286 258 317 318 307 171 180 132 116 155 179 204 196 175 214 242 233 87 40 360 10 14 346 351 348 344 6 63 77 96 117 120 126 130 125 123 136 147 152
198 245 254 225 192 149 167 210 204 204 191 246 197 183 252 265 286 276 263 265 298 121 188 170 170 215 160 226 209 24 48 33 102 189 103 60 1 321 317 333 352 51 86 100 104 114 117 120 120 119 116 126 149 159
290 277 272 188 160 200 205 223 248 186 226 237 299 105 229 252 285 273 293 311 35 300 97 195 256 208 183 332 55 49 46 7 44 32 54 22 323 307 295 228 83 108 93 100 112 117 124 124 121 119 126 134 138 148
253 296 258 187 181 227 217 262 196 248 225 193 196 154 215 258 267 291 290 303 356 86 95 31 62 40 79 50 41 22 15 18 311 302 196 155 329 350 46 86 99 105 116 117 124 128 131 133 132 137 141 144 146 154
263 272 216 197 205 266 247 250 230 255 217 209 132 159 127 359 308 309 344 16 36 23 49 57 71 69 61 86 45 346 315 316 287 301 161 349 18 286 121 106 101 110 107 114 119 128 124 122 136 144 152 156 157 170
275 222 175 183 222 221 249 235 221 211 147 274 126 179 142 224 247 355 32 324 64 49 116 85 104 119 104 92 47 323 349 334 335 358 22 103 48 68 83 113 129 131 115 120 128 129 122 136 149 159 168 171 179 176
218 221 223 209 184 269 234 230 204 194 162 180 164 209 192 189 154 182 185 72 54 75 50 111 112 134 117 88 354 333 316 303 285 112 87 121 118 108 127 131 125 98 113 118 120 122 137 155 162 168 175 169 176 178
171 200 126 78 333 257 264 300 219 197 183 215 166 198 201 157 181 130 97 82 111 64 118 120 133 108 116 156 68 32 30 42 54 69 64 77 91 90 84 102 123 125 113 139 157 143 142 151 159 165 163 163 166 173
148 78 148 218 230 246 25 275 227 210 141 186 198 217 170 163 177 223 170 121 146 137 104 140 144 122 119 97 64 26 6 66 67 60 123 96 79 73 87 83 78 86 144 150 156 142 151 157 166 179 174 169 171 171
103 297 114 248 261 225 240 246 260 166 215 242 136 189 167 147 178 219 190 158 157 136 140 141 91 91 119 117 104 72 37 24 49 70 47 84 112 113 106 98 93 91 132 134 138 157 160 168 181 186 182 186 189 182
232 168 340 340 301 235 270 259 207 217 159 215 213 152 134 178 148 230 107 143 133 118 93 63 97 111 76 71 96 49 15 23 98 83 49 61 57 56 63 120 164 111 129 187 185 180 184 188 197 207 206 205 215 206
245 110 198 276 289 298 278 251 302 315 184 214 181 169 176 211 226 121 80 8 85 83 85 61 51 89 104 95 81 66 57 51 70 85 95 83 75 61 59 54 48 37 14 330 264 230 208 200 202 211 221 217 220 229
1 354 327 330 286 299 286 298 240 250 56 5 296 198 206 213 150 34 47 70 87 105 104 92 95 113 111 98 95 94 128 81 137 128 113 96 80 69 59 50 34 28 21 24 238 257 257 273 211 214 219 220 222 224
317 40 299 246 279 239 240 294 353 65 354 334 318 73 100 53 13 29 45 63 137 125 147 130 124 125 121 111 93 86 62 52 139 183 198 134 109 38 30 31 11 315 343 354 24 206 241 242 238 229 235 227 232 225
18 344 286 230 188 254 112 80 55 40 37 106 121 126 103 91 71 1 326 264 245 248 117 132 156 186 171 144 120 85 66 62 65 70 89 92 34 9 10 5 2 15 323 243 219 271 0 212 254 251 237 210 213 203
276 267 250 228 259 115 120 124 86 112 255 232 347 48 108 135 123 1 27 20 51 121 127 104 76 88 87 72 105 125 101 72 72 75 105 74 56 49 13 347 332 334 347 306 236 218 219 205 221 215 213 224 224 205
291 252 296 291 299 118 131 203 187 213 176 182 175 107 132 187 167 159 188 208 341 87 78 137 115 90 99 97 97 99 102 101 90 70 81 196 211 62 59 45 33 14 344 15 14 357 236 225 256 245 230 222 213 204
283 269 265 258 233 202 205 197 219 203 172 204 168 175 172 183 148 132 129 88 44 109 99 105 123 134 125 122 115 110 131 110 106 90 72 64 63 84 120 99 77 56 58 60 57 64 79 53 66 98 106 114 116 117